This demonstration page uses our WeatherBlox Daily Observations layout. Learn more.

Left ArrowRight Arrow

34.74481, -87.66753

Hourly Observations for April 4, 2017

Temp ( °F °C ) Dew Point ( °F °C ) Humidity (%) Winds ( mph kmh ) Pressure ( in mb ) Visibility ( mi km ) Precip ( " mm )
12:53 am 00:53 Clear 64 17.8 54 12.2 70 70 WSW 9 15 29.74 1007 10 16 0.00 0.00
1:53 am 01:53 Clear 61 16.1 54 12.2 78 78 WSW 9 15 29.75 1007 10 16 0.00 0.00
2:53 am 02:53 Clear 62 16.7 54 12.2 75 75 WSW 7 11 29.76 1008 10 16 0.00 0.00
3:53 am 03:53 Clear 58 14.4 53 11.7 84 84 WSW 6 9 29.76 1008 10 16 0.00 0.00
4:53 am 04:53 Clear 58 14.4 53 11.7 84 84 SW 7 11 29.78 1009 10 16 0.00 0.00
5:53 am 05:53 Clear 56 13.3 52 11.1 87 87 S 5 7 29.80 1009 10 16 0.00 0.00
6:53 am 06:53 Sunny 55 12.8 52 11.1 90 90 Calm 29.82 1010 10 16 0.00 0.00
7:53 am 07:53 Sunny 60 15.6 54 12.2 80 80 Calm 29.83 1010 10 16 0.00 0.00
8:53 am 08:53 Sunny 65 18.3 56 13.3 73 73 W 7 11 29.85 1011 10 16 0.00 0.00
9:53 am 09:53 Sunny 69 20.6 57 13.9 66 66 WNW 5 7 29.84 1011 10 16 0.00 0.00
10:53 am 10:53 Sunny 72 22.2 55 12.8 55 55 VRB 6 9 29.86 1011 10 16 0.00 0.00
11:53 am 11:53 Sunny 75 23.9 53 11.7 46 46 W 5 7 29.84 1011 10 16 0.00 0.00
12:53 pm 12:53 Sunny 76 24.4 53 11.7 45 45 Calm 29.83 1010 10 16 0.00 0.00
1:53 pm 13:53 Sunny 78 25.6 53 11.7 42 42 W 3 6 29.81 1009 10 16 0.00 0.00
2:53 pm 14:53 Sunny 80 26.7 49 9.4 34 34 SW 7 11 29.78 1008 10 16 0.00 0.00
3:53 pm 15:53 Sunny 80 26.7 54 12.2 41 41 NW 3 6 29.78 1008 10 16 0.00 0.00
4:53 pm 16:53 Sunny 81 27.2 49 9.4 33 33 SSW 5 7 29.77 1008 10 16 0.00 0.00
5:53 pm 17:53 Sunny 81 27.2 50 10 34 34 S 6 9 29.78 1008 10 16 0.00 0.00
6:53 pm 18:53 Sunny 76 24.4 54 12.2 47 47 SSE 3 6 29.78 1008 10 16 0.00 0.00
7:53 pm 19:53 Clear 70 21.1 53 11.7 55 55 SSE 5 7 29.79 1009 10 16 0.00 0.00
8:53 pm 20:53 Clear 63 17.2 56 13.3 78 78 SE 6 9 29.80 1009 10 16 0.00 0.00
9:53 pm 21:53 Clear 63 17.2 56 13.3 78 78 Calm 29.80 1009 10 16 0.00 0.00
10:53 pm 22:53 Clear 59 15 53 11.7 81 81 SE 5 7 29.78 1009 10 16 0.00 0.00
11:53 pm 23:53 Clear 63 17.2 50 10 63 63 SE 7 11 29.76 1008 10 16 0.00 0.00

Powered by AerisWeather